Weather History for Panama City, FL

Change the Weather History Date:

Saturday, May 18, 2013

  Actual Average Record
Temperature  
Mean Temperature 73 °F -  
Max Temperature 84 °F - 88 °F (2012)
Min Temperature 62 °F - 46 °F (2011)
Degree Days  
Heating Degree Days 0    
Cooling Degree Days 8    
Growing Degree Days 22 (Base 50)    
Moisture  
Dew Point 63 °F    
Average Humidity 78    
Maximum Humidity 100    
Minimum Humidity 55    
Precipitation  
Precipitation T in - 0.00 in (2014)
Month to date precipitation  
Year to date precipitation  
Sea Level Pressure  
Sea Level Pressure 30.09 in    
Wind  
Wind Speed 2 mph (South)    
Max Wind Speed 18 mph    
Max Gust Speed 36 mph    
Visibility 7 miles    
Events Fog , Rain    
T = Trace of Precipitation, MM = Missing Value Source: NWS Daily Summary

Daily Weather History Graph

Daily Weather History Graph

Search for Another Location

Airport:

Trip Planner

Search our weather history database for the weather conditions in past years. The results will help you decide how hot, cold, wet, or windy it might be!

Date:

Astronomy

May. 18, 2013 Rise Set
Actual Time 6:47 AM EDT 8:32 PM EDT
Civil Twilight 6:20 AM EDT 8:58 PM EDT
Nautical Twilight 5:48 AM EDT 9:30 PM EDT
Astronomical Twilight 5:15 AM EDT 10:04 PM EDT
Moon 2:02 PM EDT (5/18) 2:09 AM EDT (5/18)
Length of Visible Light 14h 38m
Length of Day
13h 45m
First Quarter, 55% of the Moon is Illuminated
May 18
First Quarter
May 25
Full
May 31
Last Quarter
Jun 8
New
Jun 16
First Quarter

Hourly Weather History & Observations

Time (EDT) Temp. Heat Index Dew Point Humidity Pressure Visibility Wind Dir Wind Speed Gust Speed Precip Events Conditions
12:53 AM 64.0 °F - 62.1 °F 93% 30.10 in 7.0 mi Calm Calm - N/A   Clear
1:53 AM 63.0 °F - 60.1 °F 90% 30.10 in 9.0 mi Calm Calm - N/A   Partly Cloudy
2:53 AM 62.1 °F - 60.1 °F 93% 30.08 in 6.0 mi Calm Calm - N/A   Clear
3:08 AM 62.6 °F - 60.8 °F 94% 30.04 in 2.5 mi Calm Calm - N/A   Partly Cloudy
3:17 AM 62.6 °F - 60.8 °F 94% 30.04 in 4.0 mi Calm Calm - N/A   Partly Cloudy
3:39 AM 62.6 °F - 60.8 °F 94% 30.04 in 1.8 mi Calm Calm - N/A   Partly Cloudy
3:47 AM 62.6 °F - 60.8 °F 94% 30.04 in 3.0 mi Calm Calm - N/A   Clear
3:53 AM 63.0 °F - 61.0 °F 93% 30.07 in 7.0 mi Calm Calm - N/A   Clear
4:15 AM 62.6 °F - 60.8 °F 94% 30.04 in 5.0 mi Calm Calm - N/A   Scattered Clouds
4:24 AM 62.6 °F - 60.8 °F 94% 30.04 in 6.0 mi Calm Calm - N/A   Mostly Cloudy
4:53 AM 64.9 °F - 63.0 °F 93% 30.08 in 7.0 mi Calm Calm - N/A   Overcast
5:16 AM 66.2 °F - 64.4 °F 94% 30.04 in 6.0 mi Calm Calm - N/A   Mostly Cloudy
5:35 AM 66.2 °F - 62.6 °F 88% 30.04 in 6.0 mi Calm Calm - N/A   Scattered Clouds
5:53 AM 64.9 °F - 62.1 °F 90% 30.08 in 2.0 mi Calm Calm - N/A   Clear
6:09 AM 64.4 °F - 62.6 °F 94% 30.05 in 3.0 mi Calm Calm - N/A   Clear
6:19 AM 64.4 °F - 62.6 °F 94% 30.06 in 2.5 mi Calm Calm - N/A   Partly Cloudy
6:26 AM 62.6 °F - 60.8 °F 94% 30.06 in 4.0 mi Calm Calm - N/A   Mostly Cloudy
6:37 AM 64.4 °F - 62.6 °F 94% 30.06 in 1.8 mi Calm Calm - N/A   Mostly Cloudy
6:53 AM 63.0 °F - 62.1 °F 97% 30.10 in 6.0 mi Calm Calm - N/A Fog Shallow Fog
7:53 AM 66.0 °F - 64.9 °F 96% 30.13 in 6.0 mi Calm Calm - N/A Fog Shallow Fog
8:53 AM - - 46.4 °F N/A% 30.14 in - North - - N/A   Unknown
9:53 AM 75.9 °F - 68.0 °F 76% 30.14 in 8.0 mi Calm Calm - 0.00 in Rain Light Rain
10:53 AM 77.0 °F - 68.0 °F 74% 30.15 in 10.0 mi South 4.6 mph - 0.00 in   Scattered Clouds
11:20 AM 78.8 °F - 66.2 °F 65% 30.13 in 10.0 mi South 4.6 mph - N/A   Mostly Cloudy
11:27 AM 78.8 °F - 68.0 °F 69% 30.13 in 10.0 mi Variable 3.5 mph - N/A   Mostly Cloudy
11:36 AM 78.8 °F - 66.2 °F 65% 30.12 in 10.0 mi Calm Calm - N/A   Mostly Cloudy
11:53 AM 81.0 °F 83.8 °F 68.0 °F 65% 30.14 in 10.0 mi SSE 10.4 mph - N/A   Mostly Cloudy
12:53 PM 81.0 °F 83.8 °F 68.0 °F 65% 30.13 in 10.0 mi SE 12.7 mph 19.6 mph N/A   Mostly Cloudy
1:53 PM 82.0 °F 83.8 °F 64.9 °F 56% 30.13 in 10.0 mi North - - N/A   Partly Cloudy
2:53 PM 82.4 °F 84.6 °F 66.2 °F 58% 30.08 in 10.0 mi SSE 8.1 mph - N/A   Scattered Clouds
3:53 PM 82.9 °F 84.6 °F 64.9 °F 54% 30.10 in 10.0 mi South 9.2 mph - N/A   Scattered Clouds
4:53 PM 82.9 °F 84.4 °F 64.0 °F 53% 30.09 in 10.0 mi South 11.5 mph 19.6 mph N/A   Partly Cloudy
5:53 PM 82.0 °F 83.4 °F 64.0 °F 54% 30.08 in 10.0 mi South 8.1 mph - N/A   Clear
6:53 PM 81.0 °F 82.5 °F 64.0 °F 56% 30.07 in 10.0 mi SSW 9.2 mph - N/A   Clear
7:53 PM 77.0 °F - 66.0 °F 69% 30.07 in 10.0 mi SSW 8.1 mph - N/A   Clear
8:53 PM 73.9 °F - 66.9 °F 79% 30.08 in 10.0 mi SW 5.8 mph - N/A   Clear
9:53 PM 72.0 °F - 68.0 °F 87% 30.09 in 10.0 mi Calm Calm - N/A   Clear
10:53 PM 70.0 °F - 66.9 °F 90% 30.10 in 9.0 mi Calm Calm - N/A   Clear
11:53 PM 68.0 °F - 66.0 °F 93% 30.09 in 8.0 mi Calm Calm - N/A   Clear